Moultrie, GA

1:04 AM EDT on May 01, 2017 (GMT -0400)
Moultrie Municipal

Weather History for KMGR - December, 2012

Change the Weather History Date:

Monday, December 17, 2012

  Actual Average (KMUL) Record (KMUL)
Temperature  
Mean Temperature 66 °F -  
Max Temperature 73 °F 61 °F 81 °F (1933)
Min Temperature 60 °F 38 °F 22 °F (1945)
Cooling Degree Days 2    
Growing Degree Days 16 (Base 50)    
Moisture  
Dew Point 62 °F    
Average Humidity 92    
Maximum Humidity 100    
Minimum Humidity 83    
Precipitation  
Precipitation 0.00 in - - ()
Sea Level Pressure  
Sea Level Pressure 29.88 in    
Wind  
Wind Speed 6 mph (SSW)    
Max Wind Speed 14 mph    
Max Gust Speed 22 mph    
Visibility 10 miles    
Events Rain    
Averages and records for this station are not official NWS values.
T = Trace of Precipitation, MM = Missing Value Source: NWS Daily Summary

Daily Weather History Graph

Daily Weather History Graph

Search for Another Location

Airport or City:

Trip Planner

Search our weather history database for the weather conditions in past years. The results will help you decide how hot, cold, wet, or windy it might be!

Date:

Astronomy

Dec. 17, 2012 Rise Set
Actual Time 7:27 AM EST 5:35 PM EST
Civil Twilight 7:00 AM EST 6:02 PM EST
Nautical Twilight 6:30 AM EST 6:32 PM EST
Astronomical Twilight 6:01 AM EST 7:02 PM EST
Moon 10:51 AM EST (12/17) 10:38 PM EST (12/17)
Length of Visible Light 11h 01m
Length of Day
10h 08m
Waxing Crescent, 24% of the Moon is Illuminated
Dec 17
Waxing Crescent
Dec 20
First Quarter
Dec 28
Full
Jan 4
Last Quarter
Jan 11
New

Hourly Weather History & Observations

Time (EST) Temp. Dew Point Humidity Pressure Visibility Wind Dir Wind Speed Gust Speed Precip Events Conditions
12:15 AM 68.0 °F 66.2 °F 94% 29.94 in 7.0 mi SW 6.9 mph - N/A   Overcast
12:35 AM 68.0 °F 66.2 °F 94% 29.93 in 7.0 mi SW 6.9 mph - N/A   Overcast
12:55 AM 68.0 °F 66.2 °F 94% 29.93 in 10.0 mi SW 4.6 mph - N/A   Overcast
1:15 AM 64.4 °F 62.6 °F 94% 29.94 in 10.0 mi NNW 11.5 mph 19.6 mph N/A Rain Rain
1:35 AM 62.6 °F 60.8 °F 94% 29.95 in 5.0 mi NNW 13.8 mph 21.9 mph N/A Rain Light Rain
1:55 AM 62.6 °F 60.8 °F 94% 29.96 in 7.0 mi North 6.9 mph - N/A   Drizzle
2:15 AM 62.6 °F 60.8 °F 94% 29.96 in 10.0 mi NNW 3.5 mph - N/A   Overcast
2:35 AM 62.6 °F 59.0 °F 88% 29.95 in 10.0 mi NNE 3.5 mph - N/A   Overcast
2:55 AM 62.6 °F 59.0 °F 88% 29.95 in 10.0 mi Calm Calm - N/A   Overcast
3:15 AM 60.8 °F 59.0 °F 94% 29.93 in 10.0 mi Calm Calm - N/A   Overcast
3:35 AM 60.8 °F 59.0 °F 94% 29.92 in 10.0 mi Calm Calm - N/A   Mostly Cloudy
3:55 AM 60.8 °F 59.0 °F 94% 29.93 in 10.0 mi Calm Calm - N/A   Scattered Clouds
4:15 AM 60.8 °F 59.0 °F 94% 29.92 in 10.0 mi Calm Calm - N/A   Overcast
4:35 AM 60.8 °F 59.0 °F 94% 29.92 in 10.0 mi South 4.6 mph - N/A   Overcast
4:55 AM 60.8 °F 59.0 °F 94% 29.92 in 10.0 mi Calm Calm - N/A   Mostly Cloudy
5:15 AM 60.8 °F 59.0 °F 94% 29.92 in 10.0 mi SSE 4.6 mph - N/A   Overcast
5:35 AM 60.8 °F 59.0 °F 94% 29.91 in 10.0 mi SE 8.1 mph - N/A   Overcast
5:55 AM 60.8 °F 59.0 °F 94% 29.90 in 10.0 mi SE 8.1 mph - N/A   Mostly Cloudy
6:15 AM 60.8 °F 59.0 °F 94% 29.89 in 10.0 mi ESE 5.8 mph - N/A   Scattered Clouds
6:35 AM 60.8 °F 60.8 °F 100% 29.89 in 10.0 mi SE 3.5 mph - N/A   Clear
6:55 AM 60.8 °F 59.0 °F 94% 29.89 in 10.0 mi SE 4.6 mph - N/A   Clear
7:15 AM 60.8 °F 59.0 °F 94% 29.88 in 10.0 mi ESE 3.5 mph - N/A   Clear
7:35 AM 60.8 °F 59.0 °F 94% 29.89 in 10.0 mi SE 3.5 mph - N/A   Clear
7:55 AM 60.8 °F 59.0 °F 94% 29.89 in 10.0 mi SE 4.6 mph - N/A   Clear
8:15 AM 60.8 °F 60.8 °F 100% 29.90 in 10.0 mi Calm Calm - N/A   Clear
8:35 AM 62.6 °F 60.8 °F 94% 29.89 in 10.0 mi SSE 3.5 mph - N/A   Scattered Clouds
8:55 AM 62.6 °F 60.8 °F 94% 29.89 in 10.0 mi SSE 5.8 mph - N/A   Mostly Cloudy
9:15 AM 64.4 °F 62.6 °F 94% 29.89 in 10.0 mi South 3.5 mph - N/A   Overcast
9:35 AM 66.2 °F 64.4 °F 94% 29.89 in 10.0 mi SSE 8.1 mph - N/A   Overcast
9:55 AM 68.0 °F 64.4 °F 88% 29.89 in 10.0 mi South 9.2 mph - N/A   Overcast
10:15 AM 68.0 °F 64.4 °F 88% 29.89 in 10.0 mi South 9.2 mph - N/A   Overcast
10:35 AM 69.8 °F 66.2 °F 88% 29.88 in 10.0 mi South 10.4 mph 16.1 mph N/A   Overcast
10:55 AM 71.6 °F 66.2 °F 83% 29.88 in 10.0 mi South 12.7 mph 19.6 mph N/A   Mostly Cloudy
11:15 AM 71.6 °F 66.2 °F 83% 29.87 in 10.0 mi South 11.5 mph - N/A   Overcast
11:35 AM 71.6 °F 66.2 °F 83% 29.86 in 10.0 mi South 11.5 mph 19.6 mph N/A   Mostly Cloudy
11:55 AM 71.6 °F 68.0 °F 88% 29.85 in 10.0 mi South 10.4 mph - N/A   Mostly Cloudy
12:15 PM 71.6 °F 68.0 °F 88% 29.85 in 10.0 mi SSW 10.4 mph - N/A   Mostly Cloudy
12:35 PM 71.6 °F 68.0 °F 88% 29.85 in 10.0 mi SSW 9.2 mph - N/A   Mostly Cloudy
12:55 PM 71.6 °F 68.0 °F 88% 29.84 in 10.0 mi SSW 10.4 mph - N/A   Mostly Cloudy
1:15 PM 71.6 °F 68.0 °F 88% 29.83 in 10.0 mi South 10.4 mph 18.4 mph N/A   Mostly Cloudy
1:35 PM 73.4 °F 68.0 °F 83% 29.84 in 10.0 mi SW 8.1 mph - N/A   Scattered Clouds
7:35 PM 62.6 °F 60.8 °F 94% 29.83 in 10.0 mi SW 3.5 mph - N/A   Scattered Clouds
7:55 PM 62.6 °F 60.8 °F 94% 29.82 in 10.0 mi Calm Calm - N/A   Clear
8:15 PM 62.6 °F 60.8 °F 94% 29.83 in 10.0 mi Calm Calm - N/A   Clear
8:35 PM 62.6 °F 60.8 °F 94% 29.82 in 10.0 mi WSW 3.5 mph - N/A   Clear
8:55 PM 62.6 °F 60.8 °F 94% 29.82 in 10.0 mi WSW 3.5 mph - N/A   Clear
9:15 PM 62.6 °F 60.8 °F 94% 29.83 in 10.0 mi WSW 3.5 mph - N/A   Clear
9:35 PM 62.6 °F 60.8 °F 94% 29.83 in 10.0 mi SW 4.6 mph - N/A   Clear
9:55 PM 62.6 °F 60.8 °F 94% 29.83 in 10.0 mi WSW 3.5 mph - N/A   Clear
10:15 PM 62.6 °F 60.8 °F 94% 29.83 in 10.0 mi SW 3.5 mph - N/A   Clear
10:35 PM 62.6 °F 60.8 °F 94% 29.83 in 10.0 mi SW 3.5 mph - N/A   Clear
10:55 PM 62.6 °F 60.8 °F 94% 29.83 in 10.0 mi SW 3.5 mph - N/A   Scattered Clouds
11:15 PM 62.6 °F 60.8 °F 94% 29.83 in 10.0 mi WSW 3.5 mph - N/A   Scattered Clouds
11:35 PM 62.6 °F 60.8 °F 94% 29.83 in 10.0 mi SW 4.6 mph - N/A   Clear
11:55 PM 62.6 °F 60.8 °F 94% 29.83 in 10.0 mi SW 5.8 mph - N/A   Clear